User: anonymous   Login
Location: Unspecified
(0.0000°N, 0.0000°E)
Time: 11:33:23
(UTC+00:00)
Language:

Max Valier Satellite - Orbit

View from above orbital plane
View from above orbital plane
View from above satellite
View from above satellite

Ground track
Ground track

The orbit data is extracted from the following two-line orbital elements,

1 42778U 17036P   20194.84070323  .00000540  00000-0  26104-4 0  9994
2 42778  97.3030 247.7726 0010505 296.7534  63.2627 15.22657087169593
Epoch (UTC): 12 July 2020 20:10:36
Eccentricity: 0.0010505
inclination: 97.3030°
perigee height: 490 km
apogee height: 505 km
right ascension of ascending node: 247.7726°
argument of perigee: 296.7534°
revolutions per day: 15.22657087
mean anomaly at epoch: 63.2627°
orbit number at epoch: 16959

The dashed part of the orbit path shows where the satellite is in the earth's shadow,  

DLR